Regional Weather Roundup
Issued by NWS Charleston, SC

Current Version | Previous Version | Graphics & Text | Print | Product List | Glossary On
Versions: 1 2 3 4 5 6 7 8 9 10 11 12 13 14 15 16 17 18 19 20 21 22 23 24 25 26 27 28 29 30 31 32 33 34 35 36 37 38 39 40 41 42 43 44 45 46 47 48 49 50
000
ASUS42 KCHS 261027
RWRCHS

REGIONAL WEATHER ROUNDUP
NATIONAL WEATHER SERVICE CHARLESTON SC
600 AM EDT WED JUL 26 2017

NOTE: "FAIR" INDICATES FEW OR NO CLOUDS BELOW 12,000 FEET WITH NO
SIGNIFICANT WEATHER AND/OR OBSTRUCTIONS TO VISIBILITY.

NOT ALL STATIONS ARE QUALITY CONTROLLED. USE DATA WITH CAUTION...
ESPECIALLY DEWPOINT OBSERVATIONS.

SCZ027-030-031-034>040-042>050-261100-
...SOUTHEAST SOUTH CAROLINA...

CITY           SKY/WX    TMP DP  RH WIND       PRES   REMARKS
N CHARLESTON   CLOUDY    75  72  90 SW5       30.07R
WATERFRONT PRK   N/A     77  75  93 CALM      30.05R
JOHNS ISLAND   FAIR      77  75  94 CALM      30.07S
PINOPOLIS        N/A     81  73  78 NW5       30.00R
MONCKS CORNER  FAIR      73  72  94 CALM      30.08R
SUMMERVILLE    FAIR      73  72  94 CALM      30.09R
BEAUFORT MCAS  CLOUDY    77  76  96 S6        30.08R
BEAUFORT ARPT  FAIR      77  73  88 CALM      30.08R
HILTON HEAD IS NOT AVBL
WALTERBORO     NOT AVBL
ALLENDALE      NOT AVBL

...SOUTHERN MIDLANDS AND PEE DEE...

CITY           SKY/WX    TMP DP  RH WIND       PRES   REMARKS
GEORGETOWN     FAIR      73  73 100 CALM      30.08R
KINGSTREE      FAIR      73  72  94 CALM      30.08R
ORANGEBURG     PTCLDY    75  71  87 CALM      30.09R
BARNWELL       NOT AVBL
AIKEN          FAIR      72  70  94 CALM      30.13R
MANNING        FAIR      73  72  94 CALM      30.09R
COLUMBIA       PTCLDY    74  71  91 VRB3      30.08R
SUMTER         PTCLDY    74  71  89 CALM      30.06R
FLORENCE       MOCLDY    75  75 100 NE10      30.09R
MYRTLE BEACH   NOT AVBL
N MYRTLE BEACH CLOUDY    77  77 100 NE8       30.08R

$$

GAZ063-065-086>088-099>101-113>116-118-119-134>141-150-261100-
...SOUTHEAST GEORGIA...

CITY           SKY/WX    TMP DP  RH WIND       PRES   REMARKS
SAVANNAH ARPT  CLOUDY    75  73  93 CALM      30.07S
HUNTER AAF     CLOUDY    75  73  96 CALM      30.05R
FORT STEWART   CLOUDY    75  73  93 CALM      30.05R
STATESBORO     CLOUDY    73  32  21 CALM      30.09R
SYLVANIA       CLOUDY    73  73 100 CALM      30.10R FOG
CLAXTON        CLOUDY    75  74  96 NW3       30.09R

...CSRA...CENTRAL AND FAR SOUTHEAST GEORGIA...

CITY           SKY/WX    TMP DP  RH WIND       PRES   REMARKS
THOMSON        PTCLDY    71  70  96 CALM      30.15S
AUGUSTA-BUSH   PTCLDY    74  72  93 CALM      30.07S FOG
AUGUSTA-DANIEL PTCLDY    76  70  82 CALM      30.09S
SWAINSBORO     CLOUDY    72  72 100 CALM      30.10R
VIDALIA        CLOUDY    75  73  94 N3        30.09R
EASTMAN        FOG       73  73  99 CALM      30.11R VSB 1/4
HAZLEHURST     CLOUDY    76  76 100 CALM      30.07R
ALMA           CLOUDY    76  73  91 CALM      30.07S
WAYCROSS       MOCLDY    77  77 100 CALM      30.08R
JESUP          NOT AVBL
BAXLEY         CLOUDY    73  73 100 CALM      30.08R
BRUNSWICK      CLOUDY    75  75 100 CALM      30.09R FOG
SAINT SIMONS   CLOUDY    77  77 100 CALM      30.07R FOG

$$

SCZ027-028-034-036>038-045-046-048>050-GAZ119-141-261100-
...LAKE AND SUPPLEMENTAL COASTAL OBSERVATIONS...

STATION/POSITION TIME  TEMP    WIND        PRES    WAVE   SWELL
                       AIR SEA DIR/SP/G            HT/PER HT/PER/DIR
                 (UTC) (F)     (DEG/KT/KT) (MB)    (FT/S) (FT/S/D)
WINYAH BAY       0945   76     310/  2     1018.0R
LAKE MURRAY      1020   76      CALM  /  1 1017.9R
ACE BASIN NERRS  0930   76        CALM     1018.0S
FORT PULASKI     1000   78 85  360/  1/  2 1018.5
SAPELO ISLAND    1000   76        CALM     1018.0

$$

ANZ835-935-AMZ111-154-330-350-352-354-370-450-454-472-261100-
...C-MAN AND BUOY OBSERVATIONS...

STATION/POSITION TIME  TEMP    WIND        PRES    WAVE   SWELL
                       AIR SEA DIR/SP/G            HT/PER HT/PER/DIR
                 (UTC) (F)     (DEG/KT/KT) (MB)    (FT/S) (FT/S/D)
BUOY 41004       1010   81 83  280/  2/  4 1017.8
BUOY 41008       0950   80 81  160/  4/  4 1017.8R   2/10   2/100/10
FOLLY BEACH CMAN 1000   77     270/  2/  4 1018.9R
CAPERS NEARSHORE 1008   78 84  340/  8/ 10 1018.1R
FRIPP NEARSHORE  1008   82 84  100/  4/  4 1018.1R


STATION/POSITION TIME  TEMP    WIND        PRES    WAVE   SWELL
                       AIR SEA DIR/SP/G            HT/PER HT/PER/DIR
                 (UTC) (F)     (DEG/KT/KT) (MB)    (FT/S) (FT/S/D)
5E ST. MARYS GA  1000      78                N/A     1/ 9
FRYING PAN BUOY  1010   81 82   70/  6/  8 1018.3
BUOY 41025       0950   81 83   50/ 14/ 16 1019.1F   3/ 5   2/150/ 7
CAPE LOOKOUT NC  1000   78      50/ 13/ 15 1019.0R
BUOY 41002       0950   81 83  190/  2/  4 1019.2R   3/ 6   3/180/ 6
BUOY 41010       1010   84 84  180/ 10/ 10 1018.9
ST AUGUSTINE FL  1000   77 74  240/  6/  7 1018.6R


$$




USA.gov is the U.S. government's official web portal to all federal, state and local government web resources and services.